Weather History for Phuket, Thailand

Change the Weather History Date:

Tuesday, February 19, 2013

  Actual Average Record
Temperature  
Mean Temperature 81 °F -  
Max Temperature 91 °F 92 °F 98 °F (1998)
Min Temperature 71 °F 76 °F 35 °F (1997)
Cooling Degree Days 16    
Growing Degree Days 31 (Base 50)    
Moisture  
Dew Point 68 °F    
Average Humidity 67    
Maximum Humidity 94    
Minimum Humidity 34    
Precipitation  
Precipitation 0.00 in 0.06 in - ()
Sea Level Pressure  
Sea Level Pressure 29.80 in    
Wind  
Wind Speed 4 mph ()    
Max Wind Speed 15 mph    
Max Gust Speed -    
Visibility 5.4 miles    
Events      
Averages and records for this station are not official NWS values.
T = Trace of Precipitation, MM = Missing Value Source: Averaged Metar Reports

Daily Weather History Graph

Daily Weather History Graph

Search for Another Location

Airport:

Trip Planner

Search our weather history database for the weather conditions in past years. The results will help you decide how hot, cold, wet, or windy it might be!

Date:

Astronomy

Feb. 19, 2013 Rise Set
Actual Time 6:43 AM ICT 6:37 PM ICT
Civil Twilight 6:22 AM ICT 6:58 PM ICT
Nautical Twilight 5:57 AM ICT 7:23 PM ICT
Astronomical Twilight 5:33 AM ICT 7:48 PM ICT
Moon 1:17 PM ICT (2/19) 1:17 AM ICT (2/19)
Length of Visible Light 12h 36m
Length of Day
11h 53m
Waxing Gibbous, 63% of the Moon is Illuminated
Feb 19
Waxing Gibbous
Feb 26
Full
Mar 5
Last Quarter
Mar 12
New
Mar 20
First Quarter

Hourly Weather History & Observations

Time (ICT) Temp. Heat Index Dew Point Humidity Pressure Visibility Wind Dir Wind Speed Gust Speed Precip Events Conditions
12:00 AM 78.8 °F - 68.0 °F 69% 29.83 in 5.0 mi ESE 4.6 mph - N/A   Mostly Cloudy
12:30 AM 77.0 °F - 69.8 °F 78% 29.83 in 5.0 mi Variable 1.2 mph - N/A   Mostly Cloudy
1:00 AM 79 °F - 72 °F 73% 29.79 in 5 mi East 3.5 mph - -   Mist
1:00 AM 77.0 °F - 69.8 °F 78% 29.80 in 5.0 mi Calm Calm - N/A   Mostly Cloudy
1:30 AM 75.2 °F - 69.8 °F 83% 29.80 in 5.0 mi Calm Calm - N/A   Mostly Cloudy
2:00 AM 75.2 °F - 69.8 °F 83% 29.80 in 5.0 mi Calm Calm - N/A   Mostly Cloudy
2:30 AM 75.2 °F - 69.8 °F 83% 29.80 in 5.0 mi Variable 2.3 mph - N/A   Mostly Cloudy
3:30 AM 73.4 °F - 68.0 °F 83% 29.77 in 5.0 mi Variable 1.2 mph - N/A   Mostly Cloudy
4:00 AM 73.4 °F - 69.8 °F 88% 29.77 in 5.0 mi East 3.5 mph - N/A   Scattered Clouds
4:30 AM 73.4 °F - 69.8 °F 88% 29.77 in 5.0 mi East 5.8 mph - N/A   Scattered Clouds
5:00 AM 73.4 °F - 69.8 °F 88% 29.77 in 5.0 mi East 4.6 mph - N/A   Scattered Clouds
5:30 AM 73.4 °F - 69.8 °F 88% 29.77 in 5.0 mi East 3.5 mph - N/A   Scattered Clouds
6:00 AM 71.6 °F - 69.8 °F 94% 29.77 in 5.0 mi Calm Calm - N/A   Scattered Clouds
6:30 AM 71.6 °F - 69.8 °F 94% 29.77 in 5.0 mi Calm Calm - N/A   Scattered Clouds
7:00 AM 72 °F - 70 °F 91% 29.77 in 5 mi Calm Calm - -   Mist
7:00 AM 71.6 °F - 68.0 °F 88% 29.80 in 5.0 mi Calm Calm - N/A   Scattered Clouds
7:30 AM 73.4 °F - 69.8 °F 88% 29.80 in 5.0 mi Variable 1.2 mph - N/A   Scattered Clouds
8:00 AM 77.0 °F - 71.6 °F 83% 29.83 in 5.0 mi Calm Calm - N/A   Scattered Clouds
8:30 AM 80.6 °F 83.9 °F 69.8 °F 70% 29.83 in 5.6 mi Calm Calm - N/A   Mostly Cloudy
9:00 AM 84.2 °F 88.4 °F 69.8 °F 62% 29.83 in 5.6 mi Variable 2.3 mph - N/A   Mostly Cloudy
9:30 AM 84.2 °F 87.3 °F 68.0 °F 58% 29.83 in 5.6 mi East 8.1 mph - N/A   Mostly Cloudy
10:00 AM 86.0 °F 88.2 °F 66.2 °F 51% 29.86 in 5.6 mi East 6.9 mph - N/A   Mostly Cloudy
10:30 AM 86.0 °F 88.2 °F 66.2 °F 51% 29.86 in 5.6 mi East 9.2 mph - N/A   Mostly Cloudy
11:00 AM 87.8 °F 90.4 °F 66.2 °F 49% 29.83 in 5.6 mi East 11.5 mph - N/A   Scattered Clouds
11:30 AM 87.8 °F 89.4 °F 64.4 °F 46% 29.83 in 6.2 mi ESE 9.2 mph - N/A   Scattered Clouds
12:00 PM 89.6 °F 89.5 °F 60.8 °F 38% 29.83 in 6.2 mi East 9.2 mph - N/A   Scattered Clouds
12:30 PM 89.6 °F 89.5 °F 60.8 °F 38% 29.80 in 6.2 mi East 9.2 mph - N/A   Scattered Clouds
1:00 PM 90 °F - 65 °F 34% 29.79 in 6 mi East 5.8 mph - -   Scattered Clouds
1:00 PM 91.4 °F 91.4 °F 60.8 °F 36% 29.80 in 6.2 mi ESE 9.2 mph - N/A   Scattered Clouds
1:30 PM 91.4 °F 91.4 °F 60.8 °F 36% 29.77 in 6.2 mi East 10.4 mph - N/A   Scattered Clouds
2:00 PM 91.4 °F 91.4 °F 60.8 °F 36% 29.77 in 6.2 mi East 9.2 mph - N/A   Scattered Clouds
2:30 PM 91.4 °F 93.2 °F 64.4 °F 41% 29.74 in 6.2 mi East 10.4 mph - N/A   Scattered Clouds
3:00 PM 86.0 °F 90.4 °F 69.8 °F 58% 29.74 in 6.2 mi Variable 9.2 mph - N/A   Scattered Clouds
3:30 PM 87.8 °F 92.6 °F 69.8 °F 55% 29.74 in 5.6 mi West 15.0 mph - N/A   Scattered Clouds
4:00 PM 86.0 °F 89.4 °F 68.0 °F 55% 29.74 in 5.6 mi West 13.8 mph - N/A   Scattered Clouds
4:30 PM 86.0 °F 89.4 °F 68.0 °F 55% 29.74 in 5.6 mi West 13.8 mph - N/A   Scattered Clouds
5:00 PM 86.0 °F 89.4 °F 68.0 °F 55% 29.74 in 5.6 mi West 12.7 mph - N/A   Scattered Clouds
5:30 PM 86.0 °F 89.4 °F 68.0 °F 55% 29.74 in 5.6 mi West 12.7 mph - N/A   Mostly Cloudy
6:00 PM 86.0 °F 88.2 °F 66.2 °F 51% 29.74 in 5.6 mi West 11.5 mph - N/A   Mostly Cloudy
6:30 PM 84.2 °F 85.6 °F 64.4 °F 51% 29.77 in 5.0 mi West 9.2 mph - N/A   Mostly Cloudy
7:00 PM 85 °F - 69 °F 49% 29.73 in 5 mi West 4.6 mph - -   Haze
7:30 PM 78.8 °F - 68.0 °F 69% 29.80 in 5.0 mi Calm Calm - N/A   Mostly Cloudy
8:00 PM 78.8 °F - 68.0 °F 69% 29.80 in 5.0 mi Calm Calm - N/A   Mostly Cloudy
8:30 PM 78.8 °F - 68.0 °F 69% 29.83 in 5.0 mi Calm Calm - N/A   Mostly Cloudy
9:00 PM 77.0 °F - 69.8 °F 78% 29.83 in 5.0 mi Calm Calm - N/A   Mostly Cloudy
9:30 PM 77.0 °F - 69.8 °F 78% 29.83 in 5.0 mi Calm Calm - N/A   Scattered Clouds
10:00 PM 78.8 °F - 69.8 °F 74% 29.86 in 5.6 mi Variable 2.3 mph - N/A   Scattered Clouds
10:30 PM 77.0 °F - 69.8 °F 78% 29.86 in 5.6 mi Variable 3.5 mph - N/A   Scattered Clouds
11:00 PM 77.0 °F - 71.6 °F 83% 29.86 in 5.6 mi Calm Calm - N/A   Scattered Clouds
11:30 PM 77.0 °F - 69.8 °F 78% 29.86 in 5.6 mi Calm Calm - N/A   Scattered Clouds